Time,TemperatureF,DewpointF,PressureIn,WindDirection,WindDirectionDegrees,WindSpeedMPH,WindSpeedGustMPH,Humidity,HourlyPrecipIn,Conditions,Clouds,dailyrainin,SoftwareType,DateUTC
2013-03-11 00:02:00,29.5,22.5,24.13,West,270,41.0,48.0,75,0.00,,,0.00,meteohub,2013-03-11 06:02:00,
2013-03-11 00:07:00,29.5,22.5,24.14,West,270,41.0,48.0,75,0.00,,,0.00,meteohub,2013-03-11 06:07:00,
2013-03-11 00:12:00,29.3,22.1,24.14,West,270,42.0,44.0,74,0.00,,,0.00,meteohub,2013-03-11 06:12:00,
2013-03-11 00:17:00,29.1,21.9,24.13,West,270,39.0,44.0,74,0.00,,,0.00,meteohub,2013-03-11 06:17:00,
2013-03-11 00:22:00,29.1,21.9,24.13,West,270,44.0,44.0,74,0.00,,,0.00,meteohub,2013-03-11 06:22:00,
2013-03-11 00:27:00,29.3,21.7,24.14,West,270,32.0,45.0,73,0.00,,,0.00,meteohub,2013-03-11 06:27:00,
2013-03-11 00:32:00,28.8,21.6,24.13,NW,315,30.0,45.0,74,0.00,,,0.00,meteohub,2013-03-11 06:32:00,
2013-03-11 00:42:00,28.6,21.4,24.13,West,270,34.0,40.0,74,0.00,,,0.00,meteohub,2013-03-11 06:42:00,
2013-03-11 00:47:00,28.6,21.4,24.13,West,270,32.0,38.0,74,0.00,,,0.00,meteohub,2013-03-11 06:47:00,
2013-03-11 00:52:00,28.8,21.2,24.13,NW,315,35.0,40.0,73,0.00,,,0.00,meteohub,2013-03-11 06:52:00,
2013-03-11 01:02:00,29.1,20.8,24.12,West,270,31.0,40.0,71,0.00,,,0.00,meteohub,2013-03-11 07:02:00,
2013-03-11 01:07:00,29.1,20.8,24.12,West,270,31.0,39.0,71,0.00,,,0.00,meteohub,2013-03-11 07:07:00,
2013-03-11 01:12:00,28.9,20.7,24.12,NW,315,32.0,39.0,71,0.00,,,0.00,meteohub,2013-03-11 07:12:00,
2013-03-11 01:17:00,28.8,20.8,24.12,West,270,36.0,40.0,72,0.00,,,0.00,meteohub,2013-03-11 07:17:00,
2013-03-11 01:22:00,28.6,21.0,24.12,NW,315,38.0,41.0,73,0.00,,,0.00,meteohub,2013-03-11 07:22:00,
2013-03-11 01:27:00,28.6,21.0,24.12,West,270,38.0,42.0,73,0.00,,,0.00,meteohub,2013-03-11 07:27:00,
2013-03-11 01:37:00,28.2,20.7,24.12,West,270,33.0,42.0,73,0.00,,,0.00,meteohub,2013-03-11 07:37:00,
2013-03-11 01:47:00,28.4,20.8,24.12,West,270,34.0,40.0,73,0.00,,,0.00,meteohub,2013-03-11 07:47:00,
2013-03-11 01:52:00,28.2,21.0,24.12,West,270,34.0,40.0,74,0.00,,,0.00,meteohub,2013-03-11 07:52:00,
2013-03-11 02:02:00,28.2,21.0,24.12,West,270,34.0,43.0,74,0.00,,,0.00,meteohub,2013-03-11 08:02:00,
2013-03-11 02:07:00,28.2,21.0,24.12,West,270,34.0,43.0,74,0.00,,,0.00,meteohub,2013-03-11 08:07:00,
2013-03-11 02:12:00,28.0,20.8,24.13,WNW,293,27.0,43.0,74,0.00,,,0.00,meteohub,2013-03-11 08:12:00,
2013-03-11 02:17:00,28.2,20.7,24.14,West,270,34.0,34.0,73,0.00,,,0.00,meteohub,2013-03-11 08:17:00,
2013-03-11 02:22:00,28.2,20.3,24.14,NW,315,27.0,34.0,72,0.00,,,0.00,meteohub,2013-03-11 08:22:00,
2013-03-11 02:32:00,28.4,20.1,24.13,NW,315,30.0,35.0,71,0.00,,,0.00,meteohub,2013-03-11 08:32:00,
2013-03-11 02:37:00,28.4,20.5,24.13,NW,315,27.0,35.0,72,0.00,,,0.00,meteohub,2013-03-11 08:37:00,
2013-03-11 02:42:00,28.2,20.3,24.13,NW,315,29.0,35.0,72,0.00,,,0.00,meteohub,2013-03-11 08:42:00,
2013-03-11 02:47:00,28.9,20.1,24.12,NW,315,35.0,40.0,69,0.00,,,0.00,meteohub,2013-03-11 08:47:00,
2013-03-11 02:52:00,28.6,20.3,24.12,West,270,35.0,40.0,71,0.00,,,0.00,meteohub,2013-03-11 08:52:00,
2013-03-11 02:57:00,28.6,19.8,24.12,West,270,36.0,40.0,69,0.00,,,0.00,meteohub,2013-03-11 08:57:00,
2013-03-11 03:02:00,28.6,19.8,24.13,NW,315,29.0,40.0,69,0.00,,,0.00,meteohub,2013-03-11 09:02:00,
2013-03-11 03:07:00,28.6,19.8,24.14,NW,315,29.0,38.0,69,0.00,,,0.00,meteohub,2013-03-11 09:07:00,
2013-03-11 03:12:00,28.2,20.1,24.14,NW,315,31.0,38.0,71,0.00,,,0.00,meteohub,2013-03-11 09:12:00,
2013-03-11 03:17:00,28.0,19.9,24.13,West,270,23.0,31.0,71,0.00,,,0.00,meteohub,2013-03-11 09:17:00,
2013-03-11 03:27:00,28.0,20.5,24.12,NNW,338,30.0,34.0,73,0.00,,,0.00,meteohub,2013-03-11 09:27:00,
2013-03-11 03:32:00,27.9,20.7,24.11,West,270,33.0,36.0,74,0.00,,,0.00,meteohub,2013-03-11 09:32:00,
2013-03-11 03:37:00,27.7,20.5,24.11,NW,315,31.0,38.0,74,0.00,,,0.00,meteohub,2013-03-11 09:37:00,
2013-03-11 03:47:00,27.5,20.3,24.11,West,270,32.0,38.0,74,0.00,,,0.00,meteohub,2013-03-11 09:47:00,
2013-03-11 03:52:00,27.5,20.3,24.11,West,270,38.0,38.0,74,0.00,,,0.00,meteohub,2013-03-11 09:52:00,
2013-03-11 04:02:00,27.3,20.1,24.12,West,270,33.0,42.0,74,0.00,,,0.00,meteohub,2013-03-11 10:02:00,
2013-03-11 04:07:00,27.3,20.1,24.13,West,270,33.0,38.0,74,0.00,,,0.00,meteohub,2013-03-11 10:07:00,
2013-03-11 04:12:00,27.5,19.9,24.14,NW,315,21.0,34.0,73,0.00,,,0.00,meteohub,2013-03-11 10:12:00,
2013-03-11 04:17:00,27.1,19.9,24.15,NE,45,19.0,33.0,74,0.00,,,0.00,meteohub,2013-03-11 10:17:00,
2013-03-11 04:22:00,27.5,19.9,24.15,North,0,11.0,33.0,73,0.00,,,0.00,meteohub,2013-03-11 10:22:00,
2013-03-11 04:32:00,28.4,18.9,24.14,NW,315,16.0,26.0,67,0.00,,,0.00,meteohub,2013-03-11 10:32:00,
2013-03-11 04:37:00,27.9,18.7,24.12,NW,315,26.0,26.0,68,0.00,,,0.00,meteohub,2013-03-11 10:37:00,
2013-03-11 04:47:00,27.3,18.9,24.14,NW,315,15.0,28.0,70,0.00,,,0.00,meteohub,2013-03-11 10:47:00,
2013-03-11 04:52:00,27.1,19.0,24.14,NW,315,12.0,28.0,71,0.00,,,0.00,meteohub,2013-03-11 10:52:00,
2013-03-11 04:57:00,26.6,18.9,24.14,NW,315,7.0,28.0,72,0.00,,,0.00,meteohub,2013-03-11 10:57:00,
2013-03-11 05:02:00,26.4,18.7,24.14,North,0,7.0,19.0,72,0.00,,,0.00,meteohub,2013-03-11 11:02:00,
2013-03-11 05:07:00,26.4,18.7,24.14,North,0,7.0,16.0,72,0.00,,,0.00,meteohub,2013-03-11 11:07:00,
2013-03-11 05:12:00,26.1,18.3,24.14,NW,315,11.0,14.0,72,0.00,,,0.00,meteohub,2013-03-11 11:12:00,
2013-03-11 05:22:00,25.2,18.0,24.14,North,0,7.0,15.0,74,0.00,,,0.00,meteohub,2013-03-11 11:22:00,
2013-03-11 05:27:00,25.2,18.3,24.14,North,0,8.0,15.0,75,0.00,,,0.00,meteohub,2013-03-11 11:27:00,
2013-03-11 05:37:00,26.2,17.8,24.14,NW,315,8.0,10.0,70,0.00,,,0.00,meteohub,2013-03-11 11:37:00,
2013-03-11 05:42:00,26.2,17.4,24.14,NW,315,10.0,10.0,69,0.00,,,0.00,meteohub,2013-03-11 11:42:00,
2013-03-11 05:47:00,26.4,17.6,24.13,NW,315,9.0,11.0,69,0.00,,,0.00,meteohub,2013-03-11 11:47:00,
2013-03-11 05:52:00,26.4,17.6,24.14,NW,315,15.0,15.0,69,0.00,,,0.00,meteohub,2013-03-11 11:52:00,
2013-03-11 05:57:00,26.4,17.6,24.13,NW,315,15.0,15.0,69,0.00,,,0.00,meteohub,2013-03-11 11:57:00,
2013-03-11 06:07:00,26.4,17.6,24.13,NW,315,17.0,17.0,69,0.00,,,0.00,meteohub,2013-03-11 12:07:00,
2013-03-11 06:12:00,26.8,17.6,24.13,NW,315,21.0,23.0,68,0.00,,,0.00,meteohub,2013-03-11 12:12:00,
2013-03-11 06:17:00,27.0,18.1,24.12,NW,315,22.0,24.0,69,0.00,,,0.00,meteohub,2013-03-11 12:17:00,
2013-03-11 06:22:00,26.2,17.8,24.13,NW,315,21.0,24.0,70,0.00,,,0.00,meteohub,2013-03-11 12:22:00,
2013-03-11 06:27:00,26.2,18.1,24.13,NW,315,23.0,24.0,71,0.00,,,0.00,meteohub,2013-03-11 12:27:00,
2013-03-11 06:32:00,26.4,18.7,24.13,NW,315,24.0,24.0,72,0.00,,,0.00,meteohub,2013-03-11 12:32:00,
2013-03-11 06:42:00,27.3,18.5,24.13,NW,315,30.0,34.0,69,0.00,,,0.00,meteohub,2013-03-11 12:42:00,
2013-03-11 06:47:00,27.0,18.5,24.13,NW,315,26.0,34.0,70,0.00,,,0.00,meteohub,2013-03-11 12:47:00,
2013-03-11 06:52:00,27.0,18.1,24.13,NW,315,29.0,34.0,69,0.00,,,0.00,meteohub,2013-03-11 12:52:00,
2013-03-11 06:57:00,26.8,18.3,24.12,NW,315,28.0,34.0,70,0.00,,,0.00,meteohub,2013-03-11 12:57:00,
2013-03-11 07:07:00,27.0,18.1,24.12,NW,315,32.0,32.0,69,0.00,,,0.00,meteohub,2013-03-11 13:07:00,
2013-03-11 07:17:00,27.5,17.6,24.13,NW,315,29.0,36.0,66,0.00,,,0.00,meteohub,2013-03-11 13:17:00,
2013-03-11 07:22:00,27.1,17.6,24.13,NW,315,28.0,37.0,67,0.00,,,0.00,meteohub,2013-03-11 13:22:00,
2013-03-11 07:32:00,27.9,17.6,24.13,NW,315,34.0,34.0,65,0.00,,,0.00,meteohub,2013-03-11 13:32:00,
2013-03-11 07:42:00,27.5,18.3,24.13,NW,315,25.0,36.0,68,0.00,,,0.00,meteohub,2013-03-11 13:42:00,
2013-03-11 07:47:00,27.5,18.0,24.13,NW,315,31.0,34.0,67,0.00,,,0.00,meteohub,2013-03-11 13:47:00,
2013-03-11 07:52:00,27.0,18.5,24.14,NW,315,24.0,34.0,70,0.00,,,0.00,meteohub,2013-03-11 13:52:00,
2013-03-11 07:57:00,27.0,18.5,24.14,NW,315,21.0,31.0,70,0.00,,,0.00,meteohub,2013-03-11 13:57:00,
2013-03-11 08:02:00,26.6,18.5,24.14,NW,315,18.0,31.0,71,0.00,,,0.00,meteohub,2013-03-11 14:02:00,
2013-03-11 08:07:00,26.6,18.5,24.14,NW,315,18.0,27.0,71,0.00,,,0.00,meteohub,2013-03-11 14:07:00,
2013-03-11 08:12:00,26.1,18.9,24.15,NW,315,20.0,26.0,74,0.00,,,0.00,meteohub,2013-03-11 14:12:00,
2013-03-11 08:17:00,25.5,19.4,24.15,WNW,293,13.0,20.0,77,0.00,,,0.00,meteohub,2013-03-11 14:17:00,
2013-03-11 08:27:00,25.3,19.2,24.15,NW,315,13.0,20.0,77,0.00,,,0.00,meteohub,2013-03-11 14:27:00,
2013-03-11 08:37:00,25.3,19.2,24.16,NW,315,13.0,17.0,77,0.00,,,0.00,meteohub,2013-03-11 14:37:00,
2013-03-11 08:42:00,25.5,18.7,24.16,NW,315,15.0,16.0,75,0.00,,,0.00,meteohub,2013-03-11 14:42:00,
2013-03-11 08:47:00,25.7,19.2,24.16,NW,315,17.0,17.0,76,0.00,,,0.00,meteohub,2013-03-11 14:47:00,
2013-03-11 08:57:00,25.2,18.3,24.15,NW,315,15.0,20.0,75,0.00,,,0.00,meteohub,2013-03-11 14:57:00,
2013-03-11 09:02:00,25.2,18.3,24.15,NW,315,17.0,20.0,75,0.00,,,0.00,meteohub,2013-03-11 15:02:00,
2013-03-11 09:12:00,25.2,18.3,24.15,NW,315,16.0,17.0,75,0.00,,,0.00,meteohub,2013-03-11 15:12:00,
2013-03-11 09:22:00,25.3,18.9,24.16,NW,315,15.0,17.0,76,0.00,,,0.00,meteohub,2013-03-11 15:22:00,
2013-03-11 09:27:00,25.7,19.8,24.16,NW,315,13.0,17.0,78,0.00,,,0.00,meteohub,2013-03-11 15:27:00,
2013-03-11 09:32:00,25.3,19.4,24.16,NW,315,17.0,17.0,78,0.00,,,0.00,meteohub,2013-03-11 15:32:00,
2013-03-11 09:37:00,24.8,19.6,24.16,NW,315,13.0,20.0,80,0.00,,,0.00,meteohub,2013-03-11 15:37:00,
2013-03-11 09:47:00,24.3,19.8,24.16,NW,315,12.0,20.0,83,0.00,,,0.00,meteohub,2013-03-11 15:47:00,
2013-03-11 09:52:00,23.9,20.1,24.17,North,0,15.0,16.0,85,0.00,,,0.00,meteohub,2013-03-11 15:52:00,
2013-03-11 10:02:00,23.9,20.3,24.17,North,0,15.0,17.0,86,0.00,,,0.00,meteohub,2013-03-11 16:02:00,
2013-03-11 10:12:00,24.8,20.7,24.17,NW,315,15.0,15.0,84,0.00,,,0.00,meteohub,2013-03-11 16:12:00,
2013-03-11 10:17:00,25.2,21.0,24.18,NNW,338,14.0,15.0,84,0.00,,,0.00,meteohub,2013-03-11 16:17:00,
2013-03-11 10:22:00,25.0,21.2,24.18,North,0,15.0,15.0,85,0.00,,,0.00,meteohub,2013-03-11 16:22:00,
2013-03-11 10:27:00,24.6,21.0,24.18,NNW,338,17.0,19.0,86,0.00,,,0.00,meteohub,2013-03-11 16:27:00,
2013-03-11 10:32:00,23.9,20.3,24.18,North,0,24.0,24.0,86,0.00,,,0.00,meteohub,2013-03-11 16:32:00,
2013-03-11 10:37:00,23.7,21.2,24.17,North,0,26.0,26.0,90,0.00,,,0.00,meteohub,2013-03-11 16:37:00,
2013-03-11 10:47:00,21.9,20.7,24.18,North,0,26.0,28.0,95,0.00,,,0.00,meteohub,2013-03-11 16:47:00,
2013-03-11 10:52:00,21.4,20.7,24.17,North,0,25.0,28.0,97,0.00,,,0.00,meteohub,2013-03-11 16:52:00,
2013-03-11 10:57:00,21.0,20.3,24.18,North,0,28.0,28.0,97,0.00,,,0.00,meteohub,2013-03-11 16:57:00,
2013-03-11 11:02:00,21.0,20.3,24.18,North,0,27.0,32.0,97,0.00,,,0.00,meteohub,2013-03-11 17:02:00,
2013-03-11 11:07:00,21.0,20.3,24.18,North,0,27.0,32.0,97,0.00,,,0.00,meteohub,2013-03-11 17:07:00,
2013-03-11 11:12:00,20.7,19.8,24.18,North,0,28.0,32.0,96,0.00,,,0.00,meteohub,2013-03-11 17:12:00,
2013-03-11 11:22:00,20.7,19.4,24.19,North,0,21.0,28.0,95,0.00,,,0.00,meteohub,2013-03-11 17:22:00,
2013-03-11 11:27:00,20.7,19.4,24.20,North,0,20.0,29.0,95,0.00,,,0.00,meteohub,2013-03-11 17:27:00,
2013-03-11 11:32:00,20.1,18.9,24.20,North,0,24.0,29.0,95,0.00,,,0.00,meteohub,2013-03-11 17:32:00,
2013-03-11 11:37:00,20.1,18.9,24.20,North,0,21.0,29.0,95,0.00,,,0.00,meteohub,2013-03-11 17:37:00,
2013-03-11 11:42:00,20.1,18.9,24.20,North,0,19.0,24.0,95,0.00,,,0.00,meteohub,2013-03-11 17:42:00,
2013-03-11 11:47:00,19.9,18.7,24.20,North,0,23.0,24.0,95,0.00,,,0.00,meteohub,2013-03-11 17:47:00,
2013-03-11 11:52:00,19.9,18.7,24.20,North,0,21.0,23.0,95,0.00,,,0.00,meteohub,2013-03-11 17:52:00,
2013-03-11 11:57:00,20.1,18.9,24.20,North,0,22.0,23.0,95,0.00,,,0.00,meteohub,2013-03-11 17:57:00,
2013-03-11 12:02:00,20.1,18.7,24.21,North,0,23.0,23.0,94,0.00,,,0.00,meteohub,2013-03-11 18:02:00,
2013-03-11 12:07:00,20.1,18.7,24.21,North,0,23.0,23.0,94,0.00,,,0.00,meteohub,2013-03-11 18:07:00,
2013-03-11 12:12:00,20.1,18.7,24.20,North,0,21.0,23.0,94,0.00,,,0.00,meteohub,2013-03-11 18:12:00,
2013-03-11 12:22:00,20.1,18.7,24.21,North,0,21.0,23.0,94,0.00,,,0.00,meteohub,2013-03-11 18:22:00,
2013-03-11 12:27:00,20.3,18.9,24.21,North,0,19.0,23.0,94,0.00,,,0.00,meteohub,2013-03-11 18:27:00,
2013-03-11 12:32:00,20.3,18.9,24.21,North,0,21.0,23.0,94,0.00,,,0.00,meteohub,2013-03-11 18:32:00,
2013-03-11 12:37:00,19.8,18.3,24.20,North,0,23.0,26.0,94,0.00,,,0.00,meteohub,2013-03-11 18:37:00,
2013-03-11 12:42:00,20.1,18.7,24.21,North,0,23.0,26.0,94,0.00,,,0.00,meteohub,2013-03-11 18:42:00,
2013-03-11 12:47:00,19.9,18.5,24.21,North,0,24.0,26.0,94,0.00,,,0.00,meteohub,2013-03-11 18:47:00,
2013-03-11 12:52:00,20.1,18.7,24.21,North,0,22.0,26.0,94,0.00,,,0.00,meteohub,2013-03-11 18:52:00,
2013-03-11 12:57:00,19.6,18.1,24.21,North,0,24.0,26.0,94,0.00,,,0.00,meteohub,2013-03-11 18:57:00,
2013-03-11 13:02:00,19.8,18.3,24.21,North,0,22.0,26.0,94,0.00,,,0.00,meteohub,2013-03-11 19:02:00,
2013-03-11 13:07:00,19.4,17.8,24.22,North,0,21.0,25.0,93,0.00,,,0.00,meteohub,2013-03-11 19:07:00,
2013-03-11 13:12:00,19.2,17.6,24.22,North,0,21.0,25.0,93,0.00,,,0.00,meteohub,2013-03-11 19:12:00,
2013-03-11 13:22:00,19.0,17.4,24.22,North,0,18.0,23.0,93,0.00,,,0.00,meteohub,2013-03-11 19:22:00,
2013-03-11 13:27:00,19.9,18.3,24.22,North,0,19.0,21.0,93,0.00,,,0.00,meteohub,2013-03-11 19:27:00,
2013-03-11 13:37:00,20.7,18.7,24.22,North,0,23.0,23.0,92,0.00,,,0.00,meteohub,2013-03-11 19:37:00,
2013-03-11 13:42:00,19.8,17.6,24.22,North,0,25.0,25.0,91,0.00,,,0.00,meteohub,2013-03-11 19:42:00,
2013-03-11 13:47:00,20.7,18.5,24.22,North,0,23.0,26.0,91,0.00,,,0.00,meteohub,2013-03-11 19:47:00,
2013-03-11 13:57:00,21.6,19.4,24.22,NE,45,22.0,25.0,91,0.00,,,0.00,meteohub,2013-03-11 19:57:00,
2013-03-11 14:02:00,22.3,19.8,24.22,North,0,21.0,23.0,90,0.00,,,0.00,meteohub,2013-03-11 20:02:00,
2013-03-11 14:07:00,22.3,19.8,24.22,North,0,21.0,23.0,90,0.00,,,0.00,meteohub,2013-03-11 20:07:00,
2013-03-11 14:17:00,20.5,18.3,24.22,North,0,26.0,27.0,91,0.00,,,0.00,meteohub,2013-03-11 20:17:00,
2013-03-11 14:22:00,20.1,18.0,24.22,North,0,24.0,27.0,91,0.00,,,0.00,meteohub,2013-03-11 20:22:00,
2013-03-11 14:27:00,20.1,18.0,24.22,North,0,23.0,27.0,91,0.00,,,0.00,meteohub,2013-03-11 20:27:00,
2013-03-11 14:32:00,20.1,18.1,24.22,North,0,22.0,27.0,92,0.00,,,0.00,meteohub,2013-03-11 20:32:00,
2013-03-11 14:37:00,19.8,17.8,24.23,NNE,23,23.0,27.0,92,0.00,,,0.00,meteohub,2013-03-11 20:37:00,
2013-03-11 14:42:00,19.8,17.8,24.22,North,0,24.0,27.0,92,0.00,,,0.00,meteohub,2013-03-11 20:42:00,
2013-03-11 14:47:00,19.6,17.6,24.22,North,0,24.0,27.0,92,0.00,,,0.00,meteohub,2013-03-11 20:47:00,
2013-03-11 14:57:00,19.4,17.4,24.23,North,0,21.0,28.0,92,0.00,,,0.00,meteohub,2013-03-11 20:57:00,
2013-03-11 15:02:00,19.9,18.0,24.23,NNE,23,17.0,28.0,92,0.00,,,0.00,meteohub,2013-03-11 21:02:00,
2013-03-11 15:12:00,20.3,18.1,24.23,NE,45,18.0,21.0,91,0.00,,,0.00,meteohub,2013-03-11 21:12:00,
2013-03-11 15:17:00,19.9,17.8,24.23,North,0,17.0,21.0,91,0.00,,,0.00,meteohub,2013-03-11 21:17:00,
2013-03-11 15:22:00,19.9,17.8,24.23,North,0,20.0,21.0,91,0.00,,,0.00,meteohub,2013-03-11 21:22:00,
2013-03-11 15:27:00,19.6,17.4,24.23,North,0,22.0,23.0,91,0.00,,,0.00,meteohub,2013-03-11 21:27:00,
2013-03-11 15:32:00,19.8,17.8,24.23,North,0,18.0,23.0,92,0.00,,,0.00,meteohub,2013-03-11 21:32:00,
2013-03-11 15:37:00,20.3,18.3,24.23,North,0,17.0,23.0,92,0.00,,,0.00,meteohub,2013-03-11 21:37:00,
2013-03-11 15:47:00,20.5,18.3,24.24,North,0,23.0,23.0,91,0.00,,,0.00,meteohub,2013-03-11 21:47:00,
2013-03-11 15:52:00,19.8,17.2,24.24,North,0,21.0,23.0,90,0.00,,,0.00,meteohub,2013-03-11 21:52:00,
2013-03-11 15:57:00,20.7,18.7,24.24,North,0,19.0,23.0,92,0.00,,,0.00,meteohub,2013-03-11 21:57:00,
2013-03-11 16:02:00,19.9,17.4,24.25,North,0,23.0,23.0,90,0.00,,,0.00,meteohub,2013-03-11 22:02:00,
2013-03-11 16:12:00,19.2,17.1,24.24,North,0,19.0,23.0,91,0.00,,,0.00,meteohub,2013-03-11 22:12:00,
2013-03-11 16:17:00,19.4,17.2,24.24,NNW,338,18.0,23.0,91,0.00,,,0.00,meteohub,2013-03-11 22:17:00,
2013-03-11 16:27:00,18.7,16.5,24.25,North,0,15.0,20.0,91,0.00,,,0.00,meteohub,2013-03-11 22:27:00,
2013-03-11 16:32:00,19.4,17.8,24.25,North,0,15.0,18.0,93,0.00,,,0.00,meteohub,2013-03-11 22:32:00,
2013-03-11 16:37:00,19.8,17.8,24.25,North,0,16.0,16.0,92,0.00,,,0.00,meteohub,2013-03-11 22:37:00,
2013-03-11 16:47:00,19.8,17.6,24.25,North,0,16.0,17.0,91,0.00,,,0.00,meteohub,2013-03-11 22:47:00,
2013-03-11 16:57:00,18.9,16.7,24.25,North,0,16.0,17.0,91,0.00,,,0.00,meteohub,2013-03-11 22:57:00,
2013-03-11 17:02:00,19.0,17.1,24.25,North,0,15.0,17.0,92,0.00,,,0.00,meteohub,2013-03-11 23:02:00,
2013-03-11 17:07:00,19.0,17.1,24.25,North,0,15.0,17.0,92,0.00,,,0.00,meteohub,2013-03-11 23:07:00,
2013-03-11 17:12:00,19.8,17.8,24.25,North,0,15.0,16.0,92,0.00,,,0.00,meteohub,2013-03-11 23:12:00,
2013-03-11 17:22:00,20.1,18.1,24.25,North,0,14.0,15.0,92,0.00,,,0.00,meteohub,2013-03-11 23:22:00,
2013-03-11 17:27:00,19.8,17.8,24.25,North,0,15.0,15.0,92,0.00,,,0.00,meteohub,2013-03-11 23:27:00,
2013-03-11 17:37:00,19.4,17.8,24.25,North,0,11.0,16.0,93,0.00,,,0.00,meteohub,2013-03-11 23:37:00,
2013-03-11 17:47:00,19.4,17.8,24.25,North,0,17.0,17.0,93,0.00,,,0.00,meteohub,2013-03-11 23:47:00,
2013-03-11 17:52:00,19.0,17.4,24.26,NNE,23,16.0,17.0,93,0.00,,,0.00,meteohub,2013-03-11 23:52:00,
2013-03-11 18:02:00,19.0,17.6,24.26,North,0,14.0,17.0,94,0.00,,,0.00,meteohub,2013-03-12 00:02:00,
2013-03-11 18:07:00,19.0,17.6,24.26,North,0,14.0,17.0,94,0.00,,,0.00,meteohub,2013-03-12 00:07:00,
2013-03-11 18:12:00,18.5,16.9,24.26,North,0,16.0,17.0,93,0.00,,,0.00,meteohub,2013-03-12 00:12:00,
2013-03-11 18:22:00,18.3,16.9,24.26,NNE,23,17.0,17.0,94,0.00,,,0.00,meteohub,2013-03-12 00:22:00,
2013-03-11 18:32:00,18.1,16.7,24.27,North,0,14.0,17.0,94,0.00,,,0.00,meteohub,2013-03-12 00:32:00,
2013-03-11 18:37:00,18.1,16.7,24.27,North,0,15.0,17.0,94,0.00,,,0.00,meteohub,2013-03-12 00:37:00,
2013-03-11 18:42:00,18.1,16.7,24.27,North,0,15.0,15.0,94,0.00,,,0.00,meteohub,2013-03-12 00:42:00,
2013-03-11 18:47:00,18.0,16.5,24.27,North,0,15.0,15.0,94,0.00,,,0.00,meteohub,2013-03-12 00:47:00,
2013-03-11 18:52:00,18.0,16.5,24.27,North,0,14.0,15.0,94,0.00,,,0.00,meteohub,2013-03-12 00:52:00,
2013-03-11 18:57:00,17.8,16.3,24.27,North,0,12.0,15.0,94,0.00,,,0.00,meteohub,2013-03-12 00:57:00,
2013-03-11 19:07:00,17.8,16.5,24.28,North,0,12.0,14.0,95,0.00,,,0.00,meteohub,2013-03-12 01:07:00,
2013-03-11 19:12:00,17.8,16.5,24.28,North,0,13.0,13.0,95,0.00,,,0.00,meteohub,2013-03-12 01:12:00,
2013-03-11 19:17:00,17.8,16.5,24.28,North,0,11.0,13.0,95,0.00,,,0.00,meteohub,2013-03-12 01:17:00,
2013-03-11 19:22:00,17.8,16.5,24.28,North,0,11.0,13.0,95,0.00,,,0.00,meteohub,2013-03-12 01:22:00,
2013-03-11 19:27:00,17.8,16.5,24.28,North,0,15.0,15.0,95,0.00,,,0.00,meteohub,2013-03-12 01:27:00,
2013-03-11 19:32:00,17.8,16.5,24.28,North,0,15.0,15.0,95,0.00,,,0.00,meteohub,2013-03-12 01:32:00,
2013-03-11 19:42:00,17.6,16.3,24.28,North,0,14.0,17.0,95,0.00,,,0.00,meteohub,2013-03-12 01:42:00,
2013-03-11 19:47:00,17.4,16.2,24.28,North,0,13.0,17.0,95,0.00,,,0.00,meteohub,2013-03-12 01:47:00,
2013-03-11 19:57:00,17.2,16.0,24.29,North,0,11.0,16.0,95,0.00,,,0.00,meteohub,2013-03-12 01:57:00,
2013-03-11 20:02:00,17.2,16.0,24.29,North,0,11.0,15.0,95,0.00,,,0.00,meteohub,2013-03-12 02:02:00,
2013-03-11 20:07:00,17.2,16.0,24.28,North,0,11.0,15.0,95,0.00,,,0.00,meteohub,2013-03-12 02:07:00,
2013-03-11 20:17:00,16.9,15.6,24.29,North,0,13.0,13.0,95,0.00,,,0.00,meteohub,2013-03-12 02:17:00,
2013-03-11 20:27:00,16.7,15.4,24.29,North,0,11.0,13.0,95,0.00,,,0.00,meteohub,2013-03-12 02:27:00,
2013-03-11 20:32:00,16.7,15.4,24.29,North,0,9.0,13.0,95,0.00,,,0.00,meteohub,2013-03-12 02:32:00,
2013-03-11 20:37:00,16.5,15.1,24.29,North,0,10.0,12.0,94,0.00,,,0.00,meteohub,2013-03-12 02:37:00,
2013-03-11 20:42:00,16.5,15.1,24.29,North,0,10.0,12.0,94,0.00,,,0.00,meteohub,2013-03-12 02:42:00,
2013-03-11 20:47:00,16.3,14.9,24.28,North,0,10.0,11.0,94,0.00,,,0.00,meteohub,2013-03-12 02:47:00,
2013-03-11 20:57:00,16.2,14.7,24.29,North,0,8.0,11.0,94,0.00,,,0.00,meteohub,2013-03-12 02:57:00,
2013-03-11 21:07:00,16.2,14.7,24.29,North,0,8.0,10.0,94,0.00,,,0.00,meteohub,2013-03-12 03:07:00,
2013-03-11 21:12:00,16.0,14.5,24.30,North,0,5.0,8.0,94,0.00,,,0.00,meteohub,2013-03-12 03:12:00,
2013-03-11 21:17:00,16.0,14.5,24.29,North,0,5.0,8.0,94,0.00,,,0.00,meteohub,2013-03-12 03:17:00,
2013-03-11 21:22:00,16.0,14.5,24.30,North,0,5.0,8.0,94,0.00,,,0.00,meteohub,2013-03-12 03:22:00,
2013-03-11 21:32:00,16.0,14.5,24.30,North,0,8.0,8.0,94,0.00,,,0.00,meteohub,2013-03-12 03:32:00,
2013-03-11 21:37:00,16.2,14.9,24.29,North,0,8.0,8.0,95,0.00,,,0.00,meteohub,2013-03-12 03:37:00,
2013-03-11 21:42:00,16.2,14.9,24.30,North,0,7.0,8.0,95,0.00,,,0.00,meteohub,2013-03-12 03:42:00,
2013-03-11 21:47:00,16.3,15.1,24.29,North,0,6.0,8.0,95,0.00,,,0.00,meteohub,2013-03-12 03:47:00,
2013-03-11 21:57:00,16.3,15.1,24.30,North,0,5.0,7.0,95,0.00,,,0.00,meteohub,2013-03-12 03:57:00,
2013-03-11 22:02:00,16.3,15.1,24.30,North,0,4.0,7.0,95,0.00,,,0.00,meteohub,2013-03-12 04:02:00,
2013-03-11 22:07:00,16.3,15.1,24.30,North,0,4.0,6.0,95,0.00,,,0.00,meteohub,2013-03-12 04:07:00,
2013-03-11 22:12:00,16.3,15.1,24.30,North,0,4.0,6.0,95,0.00,,,0.00,meteohub,2013-03-12 04:12:00,
2013-03-11 22:17:00,16.2,14.7,24.30,North,0,4.0,4.0,94,0.00,,,0.00,meteohub,2013-03-12 04:17:00,
2013-03-11 22:22:00,16.0,14.5,24.30,North,0,4.0,4.0,94,0.00,,,0.00,meteohub,2013-03-12 04:22:00,
2013-03-11 22:32:00,15.6,14.2,24.29,NW,315,2.0,4.0,94,0.00,,,0.00,meteohub,2013-03-12 04:32:00,
2013-03-11 22:37:00,15.4,14.0,24.30,NW,315,3.0,4.0,94,0.00,,,0.00,meteohub,2013-03-12 04:37:00,
2013-03-11 22:47:00,15.3,13.8,24.29,North,0,4.0,4.0,94,0.00,,,0.00,meteohub,2013-03-12 04:47:00,
2013-03-11 22:52:00,15.3,13.8,24.29,North,0,3.0,4.0,94,0.00,,,0.00,meteohub,2013-03-12 04:52:00,
2013-03-11 22:57:00,15.3,13.8,24.30,North,0,2.0,4.0,94,0.00,,,0.00,meteohub,2013-03-12 04:57:00,
2013-03-11 23:07:00,15.3,13.8,24.29,NE,45,2.0,3.0,94,0.00,,,0.00,meteohub,2013-03-12 05:07:00,
2013-03-11 23:12:00,15.4,14.0,24.30,ENE,68,2.0,3.0,94,0.00,,,0.00,meteohub,2013-03-12 05:12:00,
2013-03-11 23:17:00,15.4,14.0,24.30,ENE,68,2.0,2.0,94,0.00,,,0.00,meteohub,2013-03-12 05:17:00,
2013-03-11 23:27:00,15.6,14.2,24.30,ENE,68,3.0,3.0,94,0.00,,,0.00,meteohub,2013-03-12 05:27:00,
2013-03-11 23:32:00,15.6,14.2,24.30,ENE,68,2.0,3.0,94,0.00,,,0.00,meteohub,2013-03-12 05:32:00,
2013-03-11 23:37:00,15.6,14.2,24.30,ENE,68,2.0,3.0,94,0.00,,,0.00,meteohub,2013-03-12 05:37:00,
2013-03-11 23:42:00,15.6,14.4,24.30,ENE,68,3.0,3.0,95,0.00,,,0.00,meteohub,2013-03-12 05:42:00,
2013-03-11 23:52:00,15.6,14.2,24.30,ENE,68,3.0,3.0,94,0.00,,,0.00,meteohub,2013-03-12 05:52:00,
2013-03-11 23:57:00,15.8,14.5,24.30,ENE,68,2.0,3.0,95,0.00,,,0.00,meteohub,2013-03-12 05:57:00,